Regional Weather Roundup
Issued by NWS Newport/Morehead, NC

Current Version | Previous Version | Graphics & Text | Print | Product List | Glossary On
Versions: 1 2 3 4 5 6 7 8 9 10 11 12 13 14 15 16 17 18 19 20 21 22 23 24 25 26 27 28 29 30 31 32 33 34 35 36 37 38 39 40 41 42 43 44 45 46 47 48 49 50
000 ASUS42 KMHX 171510 RWRMHX WEATHER ROUNDUP FOR EASTERN NORTH CAROLINA NATIONAL WEATHER SERVICE NEWPORT/MOREHEAD CITY NC 1100 AM EDT WED SEP 17 2014 NOTE: "FAIR" INDICATES FEW OR NO CLOUDS BELOW 12,000 FEET WITH NO SIGNIFICANT WEATHER AND/OR OBSTRUCTIONS TO VISIBILITY NCZ015>017-031-032-045>047-102-103-171600- NORTH COAST CITY SKY/WX TMP DP RH WIND PRES REMARKS EDENTON CLOUDY 74 65 72 NE8 29.99S ELIZABETH CITY PTSUNNY 74 61 63 NE17 29.99S KITTY HAWK PTSUNNY 76 63 63 NE13 29.97S MANTEO PTSUNNY 76 64 65 NE15 29.98S $$ NCZ045>047-081-094-103-104-171600- CENTRAL COAST CITY SKY/WX TMP DP RH WIND PRES REMARKS FRISCO CLOUDY 72 69 90 E9G21 29.96R SWANQUARTER N/A 75 N/A N/A NE8G18 29.91S $$ NCZ095-097-098-100-101-171600- SOUTHERN COAST CITY SKY/WX TMP DP RH WIND PRES REMARKS BEAUFORT PTSUNNY 76 72 87 NE8 29.94S CEDAR ISLAND N/A 77 N/A N/A NE14G26 30.00S JACKSONVILLE MOSUNNY 79 70 74 E8 29.94S NEWPORT NOT AVBL PINEY ISLAND PTSUNNY 76 69 79 NE18G25 29.94S WILMINGTON MOSUNNY 76 69 79 NE5 29.94S $$ NCZ011>013-027>030-043-044-078>080-089-090>093-098-171600- COASTAL PLAIN CITY SKY/WX TMP DP RH WIND PRES REMARKS AHOSKIE MOSUNNY 70 63 78 NE7 30.01S CLINTON CLOUDY 74 69 85 NE5 29.96S ELIZABETHTOWN CLOUDY 71 69 93 CALM 29.96R GOLDSBORO PTSUNNY 75 70 83 NE2 29.95S GREENVILLE MOSUNNY 73 66 78 NE10 30.00R HAVELOCK LGT RAIN 74 70 87 NE6 29.96S FOG KENANSVILLE CLOUDY 74 66 75 NE3 29.97S KINSTON PTSUNNY 77 66 69 NE9 29.97S NEW BERN MOSUNNY 78 68 71 NE9 29.96F RICHLANDS CLOUDY 75 66 73 NE10 29.95S ROANOKE RAPIDS NOT AVBL ROCKY MOUNT PTSUNNY 74 64 71 NE12 29.99F WASHINGTON MOSUNNY 76 67 74 NE12 29.97S WHITEVILLE PTSUNNY 74 67 78 CALM 29.95S $$ AMZ130-135-150-152-154-156-158-170-250-252-270-ANZ085-086-088-633-658-670-171600- MARINE OBSERVATIONS STATION/POSITION TIME TEMP WIND PRES WAVE SWELL AIR SEA DIR/SP/G HT/PER HT/PER (UTC) (F) (DEG/KT/KT) (MB) (FT/S) (FT/S) CHESAPEAKE LIGHT 1400 71 50/ 14/ 16 1016.8 BUOY 44014 1500 73 77 50/ 12/ 16 1015.3 5/14 5/14 DUCK 1500 73 76 50/ 19/ 21 1014.8 2E DUCK 1500 N/A 5/14 3/14 OREGON INLET 1500 74 76 40/ 16/ 20 1014.8 BUOY 44095 1500 76 N/A 5/14 3/14 20E OREGON INLET NOT AVBL HATTERAS CG 1500 73 79 90/ 9/ 16 1014.8 DIAMOND BUOY 1500 73 70/ 10/ 12 1014.0 5/14 5/14 CAPE LOOKOUT 1400 78 40/ 9/ 10 1013.3 BEAUFORT LAB 1500 74 79 10/ 8/ 10 1013.3 30 SE NEW RIVER 1400 78 81 50/ 8/ 10 1013.5 5 SE WRIGHTSVILL 1400 69 81 10/ 10/ 12 N/A BUOY 41002 1437 74 82 290/ 17/ 21 1012.6 7/13 7/13 BUOY 41004 1500 78 83 40/ 17/ 21 1012.9 3/12 2/12 $$

USA.gov is the U.S. government's official web portal to all federal, state and local government web resources and services.